[[{"header":{"parameterUnit":"m.s-1","parameterCategory":1,"la1":30.2991,"la2":30.254,"lo1":-89.0895,"lo2":-89.0444,"dy":0.0017,"dx":0.0017,"nx":28,"ny":28,"refTime":"2025-04-05T03:00:00:Z","depth":0,"parameterNumber":2,"parameterNumberName":"U-component_of_WINDS"},"data":[0,0,0,0,0,0,0,0,0,0,0,0,0,0,0,0,0,0,0,0,0,0,0,0,0,0,0,0,0,0,0,0,0,0,0,0,0,0,0,0,0,0,0,0,0,0,0,0,0,0,0,0,0,0,0,0,0,0,-3.3012,-3.3014,0,-3.3248,-3.3251,-3.3253,-3.3361,-3.3361,-3.3361,-3.336,-3.3603,-3.361,-3.3616,0,0,0,0,0,0,0,0,0,0,0,0,0,-3.2655,-3.2661,-3.3012,-3.3015,-3.3018,-3.3247,-3.3251,-3.3254,-3.3361,-3.3361,-3.336,-3.336,-3.3601,-3.3609,-3.3617,0,0,0,0,0,0,0,0,0,0,0,0,0,-3.2842,-3.2663,-3.3011,-3.3099,-3.3109,-3.3247,-3.3251,-3.3255,-3.3361,-3.3361,-3.336,-3.336,-3.3599,-3.3608,-3.3618,-3.3687,0,0,-3.3649,-3.3653,0,0,0,0,0,0,0,0,-3.2832,-3.2855,-3.3083,-3.3093,-3.3105,-3.3275,-3.3214,-3.34,-3.3361,-3.3265,-3.336,-3.336,-3.3494,-3.3513,-3.3558,-3.3698,-3.3709,-3.365,-3.3656,-3.366,-3.3663,0,0,0,0,0,0,0,-3.2819,-3.2846,-3.3105,-3.3086,-3.3099,-3.3127,-3.3153,-3.325,-3.3379,-3.3274,-3.3282,-3.3308,-3.35,-3.3548,-3.3564,-3.3712,-3.3649,-3.3658,-3.3665,-3.3668,-3.3922,-3.3923,0,0,0,0,0,0,-3.2791,-3.2834,-3.3098,-3.3112,-3.2964,-3.3133,-3.3163,-3.322,-3.3378,-3.3402,-3.3309,-3.3313,-3.3531,-3.3553,-3.3573,-3.3665,-3.366,-3.3669,-3.3675,-3.3922,-3.3922,-3.3923,0,0,0,0,0,0,-3.2783,-3.2814,-3.3088,-3.2976,-3.3013,-3.314,-3.3204,-3.3225,-3.3273,-3.3405,-3.3428,-3.3334,-3.3532,-3.3559,-3.3658,-3.3675,-3.3674,-3.3683,-3.3921,-3.3922,-3.3923,-3.3849,0,0,0,0,0,0,-3.2772,-3.281,-3.2837,-3.2976,-3.3018,-3.3168,-3.3205,-3.323,-3.329,-3.3298,-3.3434,-3.3457,-3.3534,-3.3643,-3.3668,-3.3689,-3.3691,-3.392,-3.3921,-3.3923,-3.385,-3.3847,-3.3844,0,0,0,0,0,-3.2759,-3.2807,-3.2838,-3.2869,-3.3055,-3.3169,-3.3194,-3.3281,-3.3291,-3.332,-3.3404,-3.3452,-3.3669,-3.3652,-3.3681,-3.3705,-3.3919,-3.3921,-3.3922,-3.3851,-3.3848,-3.3844,0,0,0,0,0,0,-3.2668,-3.2827,-3.2863,-3.2957,-3.3048,-3.3187,-3.3226,-3.3274,-3.3365,-3.3368,-3.3473,-3.3503,-3.3592,-3.3659,-3.3637,-3.3781,-3.3798,-3.3806,-3.3734,-3.3732,-3.3729,-3.3711,-3.3699,0,0,0,0,0,-3.2658,-3.2737,-3.2872,-3.2942,-3.2986,-3.3097,-3.3151,-3.321,-3.3309,-3.3349,-3.344,-3.3535,-3.3625,-3.3682,-3.3772,-3.386,-3.3892,-3.3891,-3.3888,-3.3885,-3.3891,-3.3943,-3.3945,-3.3929,-3.3929,-3.3929,0,0,-3.264,-3.2737,-3.278,-3.2926,-3.3004,-3.3084,-3.313,-3.3212,-3.3273,-3.3362,-3.3461,-3.3531,-3.3644,-3.3738,-3.3784,-3.3796,-3.3902,-3.3887,-3.3884,-3.3892,-3.3945,-3.3946,-3.3948,-3.393,-3.393,-3.3929,0,0,-3.2648,-3.2729,-3.2796,-3.2873,-3.299,-3.3064,-3.308,-3.3212,-3.3262,-3.3362,-3.3431,-3.3505,-3.3657,-3.3735,-3.3794,-3.3831,-3.3879,-3.3857,-3.3842,-3.3892,-3.3894,-3.3895,-3.3909,-3.3913,-3.3862,-3.3862,-3.3862,0,-3.2611,-3.2734,-3.2824,-3.2904,-3.2966,-3.3049,-3.3118,-3.3189,-3.333,-3.3371,-3.3383,-3.3575,-3.3657,-3.3771,-3.378,-3.3825,-3.3847,-3.3843,-3.3886,-3.3888,-3.3891,-3.3906,-3.3911,-3.3859,-3.3859,-3.3859,-3.386,0,-3.2682,-3.2766,-3.2806,-3.294,-3.3007,-3.308,-3.3183,-3.3239,-3.3292,-3.3365,-3.3467,-3.3568,-3.368,-3.3711,-3.3764,-3.3833,-3.3837,-3.3865,-3.3885,-3.3888,-3.3903,-3.391,-3.3854,-3.3855,-3.3856,-3.3857,0,0,-3.264,-3.2822,-3.2835,-3.2897,-3.3032,-3.3099,-3.3177,-3.3286,-3.3333,-3.3427,-3.3495,-3.3622,-3.3649,-3.3717,-3.3779,-3.3822,-3.3846,-3.3847,-3.3851,-3.3844,-3.3929,-3.3906,-3.3911,-3.3878,-3.388,-3.3881,-3.3919,0,-3.2667,-3.2809,-3.2893,-3.3001,-3.308,-3.316,-3.3227,-3.3318,-3.3388,-3.3466,-3.3543,-3.3632,-3.3661,-3.3702,-3.3749,-3.3833,-3.3865,-3.3831,-3.3944,-3.3947,-3.3913,-3.3919,-3.3896,-3.3927,-3.3926,-3.3927,-3.3928,0,-3.2717,-3.2809,-3.2924,-3.3051,-3.3087,-3.3146,-3.3253,-3.3326,-3.3431,-3.3479,-3.3554,-3.3616,-3.3702,-3.3714,-3.3834,-3.3809,-3.386,-3.3909,-3.3912,-3.3926,-3.3937,-3.3934,-3.3939,-3.3944,-3.3938,-3.3937,-3.3936,0,-3.2675,-3.2828,-3.2917,-3.2967,-3.3117,-3.3156,-3.3221,-3.3325,-3.3385,-3.3479,-3.3519,-3.3621,-3.3677,-3.3755,-3.3844,-3.3844,-3.3955,-3.3975,-3.3998,-3.3996,-3.4018,-3.4016,-3.4032,-3.405,-3.4049,-3.4049,-3.4049,0,-3.2697,-3.2765,-3.29,-3.2954,-3.3033,-3.3129,-3.3204,-3.3275,-3.3367,-3.3437,-3.3513,-3.3578,-3.3691,-3.3769,-3.3839,-3.3928,-3.3953,-3.3995,-3.4013,-3.3989,-3.3983,-3.4024,-3.4024,-3.4051,-3.405,-3.405,-3.405,0,-3.2664,-3.2757,-3.2859,-3.2992,-3.3027,-3.3079,-3.3194,-3.325,-3.3324,-3.3412,-3.3438,-3.3554,-3.3651,-3.3747,-3.3877,-3.3924,-3.4012,-3.4036,-3.3977,-3.3987,-3.4005,-3.4002,-3.4049,-3.406,-3.4068,-3.4068,-3.4068,0,-3.2672,-3.2726,-3.2864,-3.2916,-3.2979,-3.3062,-3.3124,-3.322,-3.3281,-3.3405,-3.3446,-3.3548,-3.3635,-3.3786,-3.3883,-3.3983,-3.401,-3.402,-3.4026,-3.4,-3.4011,-3.4007,-3.4013,-3.4017,-3.4016,-3.4015,-3.4015,0,-3.2676,-3.272,-3.2805,-3.2907,-3.2978,-3.3063,-3.315,-3.3189,-3.3303,-3.3368,-3.3467,-3.3534,-3.3667,-3.3768,-3.3879,-3.3947,-3.4,-3.4012,-3.4023,-3.3999,-3.3963,-3.3984,-3.3969,-3.4011,-3.4011,-3.4012,-3.4012,-3.4012,-3.2665,-3.2717,-3.2822,-3.2915,-3.2991,-3.3071,-3.313,-3.3211,-3.3295,-3.341,-3.3462,-3.3562,-3.3667,-3.3822,-3.3888,-3.3968,-3.3982,-3.3998,-3.4002,-3.4005,-3.3999,-3.3949,-3.3989,-3.3989,-3.399,-3.399,-3.399,0,-3.2674,-3.2746,-3.283,-3.295,-3.3022,-3.3065,-3.3164,-3.3223,-3.331,-3.3402,-3.3486,-3.36,-3.3698,-3.3802,-3.3906,-3.3951,-3.3978,-3.3975,-3.3973,-3.3988,-3.3981,-3.3961,-3.3951,-3.3951,-3.3951,-3.3951,-3.3951,-3.3951,-3.2687,-3.2777,-3.2832,-3.2961,-3.3033,-3.313,-3.3183,-3.3258,-3.3332,-3.3456,-3.3537,-3.3604,-3.3701,-3.3813,-3.3906,-3.3934,-3.3969,-3.3959,-3.3994,-3.3985,-3.3988,-3.3991,-3.3973,-3.3966,-3.3966,-3.3995,-3.3995,-3.3995]},{"header":{"parameterUnit":"m.s-1","parameterCategory":1,"la1":30.2991,"la2":30.254,"lo1":-89.0895,"lo2":-89.0444,"dy":0.0017,"dx":0.0017,"nx":28,"ny":28,"refTime":"2025-04-05T03:00:00:Z","depth":0,"parameterNumber":3,"parameterNumberName":"V-component_of_WINDS"},"data":[0,0,0,0,0,0,0,0,0,0,0,0,0,0,0,0,0,0,0,0,0,0,0,0,0,0,0,0,0,0,0,0,0,0,0,0,0,0,0,0,0,0,0,0,0,0,0,0,0,0,0,0,0,0,0,0,0,0,5.7661,5.7663,0,5.7773,5.7774,5.7775,5.7772,5.777,5.7769,5.7767,5.7883,5.7887,5.7892,0,0,0,0,0,0,0,0,0,0,0,0,0,5.7449,5.7453,5.7661,5.7663,5.7664,5.7772,5.7774,5.7775,5.7772,5.777,5.7768,5.7766,5.7881,5.7887,5.7892,0,0,0,0,0,0,0,0,0,0,0,0,0,5.7549,5.7454,5.7661,5.7675,5.7678,5.7772,5.7774,5.7776,5.7772,5.777,5.7768,5.7766,5.7879,5.7886,5.7893,5.7981,0,0,5.7913,5.7916,0,0,0,0,0,0,0,0,5.7543,5.7557,5.7672,5.7675,5.7677,5.7756,5.7741,5.7845,5.7773,5.7736,5.7767,5.7764,5.7843,5.7852,5.7878,5.7986,5.7991,5.7914,5.7918,5.7921,5.7923,0,0,0,0,0,0,0,5.7536,5.7552,5.7705,5.7674,5.7677,5.7677,5.7689,5.7761,5.7801,5.7739,5.7739,5.7753,5.7844,5.7872,5.7881,5.7993,5.7914,5.792,5.7924,5.7927,5.8181,5.8184,0,0,0,0,0,0,5.7526,5.7546,5.7702,5.7709,5.7603,5.7683,5.7696,5.7733,5.78,5.7808,5.7754,5.7752,5.7861,5.7873,5.7885,5.7994,5.7921,5.7927,5.7931,5.8179,5.8182,5.8185,0,0,0,0,0,0,5.7522,5.754,5.7697,5.7628,5.7648,5.7689,5.7731,5.7736,5.7764,5.7812,5.7819,5.7776,5.786,5.7875,5.7957,5.7998,5.793,5.7937,5.8176,5.818,5.8184,5.8213,0,0,0,0,0,0,5.7516,5.7538,5.7571,5.7628,5.7651,5.7767,5.7733,5.774,5.7776,5.7774,5.7833,5.7841,5.7859,5.7947,5.7964,5.8006,5.7942,5.8172,5.8177,5.8182,5.8208,5.8217,5.8225,0,0,0,0,0,5.7508,5.7575,5.7573,5.7592,5.7693,5.7769,5.7783,5.7802,5.7779,5.7813,5.7844,5.7839,5.7991,5.7956,5.7975,5.802,5.817,5.8176,5.8182,5.8205,5.8216,5.8225,0,0,0,0,0,0,5.7522,5.7583,5.7581,5.7668,5.7714,5.7769,5.7812,5.7812,5.7865,5.7861,5.7883,5.7897,5.798,5.8007,5.7967,5.811,5.8078,5.8088,5.8088,5.8099,5.8107,5.81,5.7947,0,0,0,0,0,5.7535,5.7591,5.7641,5.7713,5.7736,5.777,5.7804,5.7815,5.7863,5.7883,5.7919,5.7967,5.8026,5.8064,5.812,5.8212,5.8226,5.8253,5.8261,5.8267,5.8276,5.833,5.8343,5.8205,5.8205,5.8205,0,0,5.7563,5.7603,5.7637,5.7717,5.7754,5.7813,5.7787,5.7849,5.7894,5.7892,5.7973,5.8001,5.8056,5.8144,5.8185,5.817,5.8318,5.8275,5.828,5.8286,5.8338,5.8351,5.8362,5.8209,5.8208,5.8208,0,0,5.7644,5.7679,5.7744,5.7782,5.7837,5.786,5.7876,5.7931,5.795,5.8031,5.8032,5.8085,5.8185,5.8225,5.8258,5.8357,5.8355,5.8374,5.8418,5.847,5.8481,5.8491,5.8529,5.8541,5.8383,5.8383,5.8383,0,5.7672,5.776,5.7778,5.7842,5.7878,5.7879,5.7947,5.7982,5.8054,5.8079,5.8062,5.8189,5.8225,5.8324,5.8349,5.8375,5.8395,5.8368,5.8478,5.8488,5.8498,5.8534,5.8547,5.8385,5.8385,5.8385,5.8384,0,5.7793,5.7854,5.79,5.7969,5.8011,5.8076,5.8105,5.8145,5.8153,5.8178,5.8261,5.8306,5.8372,5.8396,5.8404,5.8497,5.8486,5.8473,5.8442,5.8513,5.8547,5.8561,5.8388,5.8387,5.8387,5.8386,0,0,5.7886,5.7965,5.7982,5.8015,5.8077,5.8125,5.8191,5.8256,5.8291,5.834,5.8398,5.8483,5.8472,5.851,5.8522,5.8568,5.8646,5.8549,5.8551,5.8568,5.8754,5.8766,5.8781,5.8645,5.8647,5.865,5.8751,0,5.7976,5.8093,5.8112,5.8215,5.8273,5.8276,5.8334,5.8379,5.8404,5.8458,5.8486,5.8547,5.8527,5.855,5.8595,5.8627,5.8684,5.862,5.8701,5.8703,5.8689,5.8799,5.881,5.8903,5.8764,5.8766,5.8768,0,5.8096,5.8149,5.8258,5.8314,5.8339,5.8391,5.8453,5.8504,5.8556,5.8572,5.8615,5.8623,5.8693,5.8658,5.8756,5.8712,5.8746,5.8767,5.8772,5.8781,5.8741,5.8813,5.8933,5.8948,5.8789,5.8787,5.8785,0,5.8156,5.8255,5.8333,5.8361,5.8428,5.8464,5.8494,5.8544,5.8582,5.8637,5.8663,5.8725,5.8759,5.8808,5.8833,5.8804,5.8931,5.8897,5.8948,5.8947,5.8976,5.8974,5.9105,5.8994,5.8994,5.8994,5.8993,0,5.8255,5.8323,5.8362,5.841,5.8486,5.8508,5.8583,5.8612,5.8657,5.8712,5.8718,5.877,5.8799,5.8856,5.8875,5.8956,5.8971,5.8987,5.8992,5.8988,5.8986,5.9012,5.9007,5.8997,5.8997,5.8996,5.8995,0,5.8336,5.8364,5.8451,5.8507,5.8523,5.8577,5.8626,5.8675,5.87,5.877,5.8788,5.8828,5.8896,5.8925,5.9008,5.9022,5.9114,5.9113,5.9097,5.9099,5.9149,5.9145,5.9303,5.9326,5.9198,5.9199,5.92,0,5.8399,5.8451,5.8513,5.855,5.8581,5.8641,5.8681,5.8704,5.8746,5.881,5.8851,5.8919,5.8974,5.9082,5.912,5.9184,5.9186,5.9237,5.9196,5.9191,5.919,5.9187,5.9194,5.9245,5.9246,5.9247,5.9248,0,5.8507,5.8519,5.8576,5.8638,5.8685,5.8735,5.8784,5.8815,5.8846,5.8893,5.8962,5.9005,5.909,5.9158,5.9225,5.9257,5.9259,5.9261,5.9276,5.9274,5.9263,5.9272,5.912,5.9257,5.9256,5.9256,5.9255,5.9255,5.8583,5.863,5.8682,5.8745,5.8784,5.8831,5.8879,5.8911,5.8969,5.904,5.905,5.9125,5.9178,5.9268,5.9303,5.9362,5.935,5.9372,5.9378,5.9384,5.9388,5.9252,5.9374,5.9374,5.9374,5.9374,5.9373,0,5.8694,5.8728,5.8786,5.8854,5.8905,5.8901,5.8956,5.8999,5.9064,5.9112,5.9167,5.9248,5.9314,5.9357,5.9425,5.9464,5.9467,5.9482,5.948,5.9488,5.9394,5.9375,5.9478,5.9478,5.9478,5.9478,5.9478,5.9478,5.8758,5.8839,5.8857,5.8958,5.8991,5.9064,5.9096,5.9139,5.9178,5.9268,5.9323,5.935,5.9398,5.9469,5.953,5.9541,5.9567,5.9582,5.9593,5.9505,5.9494,5.9484,5.9466,5.9587,5.9587,5.9683,5.9684,5.9684]}]]